Lambertville, MI

2:16 AM EST on February 07, 2016 (GMT -0500)
Toledo Suburban Airport

Weather History for KDUH - April, 2013

Change the Weather History Date:

Tuesday, April 30, 2013

  Actual Average (KTOL) Record (KTOL)
Temperature  
Mean Temperature 63 °F 55 °F  
Max Temperature 73 °F 66 °F 89 °F (1942)
Min Temperature 53 °F 44 °F 30 °F (1958)
Degree Days  
Heating Degree Days 2 11  
Month to date heating degree days 476  
Since 1 July heating degree days 5902  
Cooling Degree Days 0 0  
Month to date cooling degree days 8  
Year to date cooling degree days 8  
Growing Degree Days 13 (Base 50)    
Moisture  
Dew Point 51 °F    
Average Humidity 66    
Maximum Humidity 88    
Minimum Humidity 46    
Precipitation  
Precipitation 0.00 in 0.10 in 0.61 in (1983)
Month to date precipitation 3.19  
Year to date precipitation 9.79  
Snow  
Snow 0.00 in 0.00 in - ()
Month to date snowfall 1.3  
Since 1 July snowfall 37.5  
Snow Depth -    
Sea Level Pressure  
Sea Level Pressure 30.02 in    
Wind  
Wind Speed 6 mph (South)    
Max Wind Speed 15 mph    
Max Gust Speed 23 mph    
Visibility 9 miles    
Events      
T = Trace of Precipitation, MM = Missing Value Source: NWS Daily Summary

Daily Weather History Graph

Daily Weather History Graph

Search for Another Location

Airport or City:

Trip Planner

Search our weather history database for the weather conditions in past years. The results will help you decide how hot, cold, wet, or windy it might be!

Date:

Astronomy

Apr. 30, 2013 Rise Set
Actual Time 6:32 AM EDT 8:32 PM EDT
Civil Twilight 6:01 AM EDT 9:02 PM EDT
Nautical Twilight 5:25 AM EDT 9:39 PM EDT
Astronomical Twilight 4:45 AM EDT 10:19 PM EDT
Moon 12:55 AM EDT (4/30) 10:58 AM EDT (4/30)
Length of Visible Light 15h 00m
Length of Day
13h 59m
Waning Gibbous, 70% of the Moon is Illuminated
Apr 30
Waning Gibbous
May 2
Last Quarter
May 9
New
May 18
First Quarter
May 25
Full

Hourly Weather History & Observations

Time (EDT) Temp. Dew Point Humidity Pressure Visibility Wind Dir Wind Speed Gust Speed Precip Events Conditions
12:15 AM 59.0 °F 51.8 °F 77% 29.96 in 10.0 mi South 5.8 mph - N/A   Scattered Clouds
12:35 AM 59.0 °F 51.8 °F 77% 29.97 in 10.0 mi South 3.5 mph - N/A   Scattered Clouds
12:55 AM 59.0 °F 51.8 °F 77% 29.97 in 10.0 mi South 3.5 mph - N/A   Clear
1:15 AM 59.0 °F 51.8 °F 77% 29.97 in 10.0 mi South 4.6 mph - N/A   Clear
1:35 AM 59.0 °F 51.8 °F 77% 29.98 in 10.0 mi South 3.5 mph - N/A   Clear
1:55 AM 59.0 °F 51.8 °F 77% 29.98 in 10.0 mi South 4.6 mph - N/A   Clear
2:15 AM 57.2 °F 51.8 °F 82% 29.98 in 10.0 mi Calm Calm - N/A   Scattered Clouds
2:35 AM 57.2 °F 51.8 °F 82% 29.98 in 10.0 mi Calm Calm - N/A   Scattered Clouds
2:55 AM 55.4 °F 51.8 °F 88% 29.98 in 10.0 mi Calm Calm - N/A   Scattered Clouds
3:15 AM 55.4 °F 51.8 °F 88% 29.98 in 10.0 mi South 3.5 mph - N/A   Scattered Clouds
3:35 AM 55.4 °F 51.8 °F 88% 29.98 in 10.0 mi South 4.6 mph - N/A   Scattered Clouds
3:55 AM 55.4 °F 50.0 °F 82% 29.98 in 10.0 mi Calm Calm - N/A   Scattered Clouds
4:15 AM 55.4 °F 50.0 °F 82% 29.99 in 10.0 mi South 4.6 mph - N/A   Scattered Clouds
4:35 AM 55.4 °F 50.0 °F 82% 29.99 in 10.0 mi SSW 3.5 mph - N/A   Clear
4:55 AM 55.4 °F 50.0 °F 82% 29.99 in 7.0 mi South 3.5 mph - N/A   Clear
5:15 AM 53.6 °F 50.0 °F 88% 29.99 in 7.0 mi South 3.5 mph - N/A   Clear
5:35 AM 53.6 °F 50.0 °F 88% 29.99 in 7.0 mi SSE 3.5 mph - N/A   Clear
5:55 AM 53.6 °F 50.0 °F 88% 29.99 in 7.0 mi South 3.5 mph - N/A   Clear
6:15 AM 53.6 °F 50.0 °F 88% 29.99 in 7.0 mi South 3.5 mph - N/A   Clear
6:35 AM 53.6 °F 50.0 °F 88% 29.99 in 5.0 mi Calm Calm - N/A   Clear
6:55 AM 53.6 °F 50.0 °F 88% 29.99 in 4.0 mi SSE 3.5 mph - N/A   Clear
7:15 AM 53.6 °F 50.0 °F 88% 30.00 in 4.0 mi South 4.6 mph - N/A   Clear
7:35 AM 53.6 °F 50.0 °F 88% 30.01 in 5.0 mi South 3.5 mph - N/A   Clear
7:55 AM 55.4 °F 50.0 °F 82% 30.03 in 5.0 mi South 4.6 mph - N/A   Haze
8:15 AM 57.2 °F 51.8 °F 82% 30.03 in 5.0 mi South 3.5 mph - N/A   Haze
8:35 AM 59.0 °F 51.8 °F 77% 30.03 in 7.0 mi South 5.8 mph - N/A   Clear
8:55 AM 60.8 °F 51.8 °F 72% 30.04 in 7.0 mi South 9.2 mph - N/A   Clear
9:15 AM 60.8 °F 51.8 °F 72% 30.04 in 7.0 mi South 8.1 mph - N/A   Clear
9:35 AM 62.6 °F 51.8 °F 68% 30.04 in 7.0 mi South 9.2 mph 16.1 mph N/A   Clear
9:55 AM 62.6 °F 51.8 °F 68% 30.05 in 10.0 mi SSW 10.4 mph - N/A   Scattered Clouds
10:15 AM 64.4 °F 51.8 °F 64% 30.04 in 10.0 mi SSE 13.8 mph 21.9 mph N/A   Scattered Clouds
10:35 AM 64.4 °F 51.8 °F 64% 30.05 in 10.0 mi SSW 11.5 mph 17.3 mph N/A   Clear
10:55 AM 64.4 °F 51.8 °F 64% 30.06 in 10.0 mi South 6.9 mph - N/A   Clear
11:15 AM 66.2 °F 51.8 °F 60% 30.06 in 10.0 mi South 8.1 mph 17.3 mph N/A   Clear
11:35 AM 66.2 °F 51.8 °F 60% 30.07 in 10.0 mi South 9.2 mph - N/A   Scattered Clouds
11:55 AM 66.2 °F 50.0 °F 56% 30.08 in 10.0 mi South 8.1 mph - N/A   Clear
12:15 PM 68.0 °F 51.8 °F 56% 30.08 in 10.0 mi South 10.4 mph - N/A   Clear
12:35 PM 68.0 °F 51.8 °F 56% 30.07 in 10.0 mi SE 6.9 mph - N/A   Clear
12:55 PM 68.0 °F 51.8 °F 56% 30.07 in 10.0 mi SE 11.5 mph 16.1 mph N/A   Clear
1:15 PM 68.0 °F 51.8 °F 56% 30.06 in 10.0 mi SE 11.5 mph 18.4 mph N/A   Clear
1:35 PM 69.8 °F 51.8 °F 53% 30.04 in 10.0 mi SE 15.0 mph 21.9 mph N/A   Clear
1:55 PM 69.8 °F 51.8 °F 53% 30.03 in 10.0 mi SE 9.2 mph - N/A   Clear
2:15 PM 71.6 °F 51.8 °F 50% 30.04 in 10.0 mi SSE 12.7 mph 23.0 mph N/A   Clear
2:35 PM 71.6 °F 51.8 °F 50% 30.04 in 10.0 mi SSE 13.8 mph 20.7 mph N/A   Clear
2:55 PM 71.6 °F 51.8 °F 50% 30.03 in 10.0 mi SSE 12.7 mph 19.6 mph N/A   Clear
3:15 PM 73.4 °F 53.6 °F 50% 30.02 in 10.0 mi SSE 9.2 mph 19.6 mph N/A   Clear
3:35 PM 73.4 °F 51.8 °F 47% 30.02 in 10.0 mi SE 11.5 mph 18.4 mph N/A   Clear
3:55 PM 73.4 °F 51.8 °F 47% 30.01 in 10.0 mi SE 13.8 mph 19.6 mph N/A   Clear
4:15 PM 73.4 °F 51.8 °F 47% 30.01 in 10.0 mi South 9.2 mph 19.6 mph N/A   Clear
4:35 PM 73.4 °F 51.8 °F 47% 30.01 in 10.0 mi South 15.0 mph 21.9 mph N/A   Clear
4:55 PM 73.4 °F 51.8 °F 47% 30.00 in 10.0 mi South 10.4 mph 18.4 mph N/A   Clear
5:15 PM 73.4 °F 51.8 °F 47% 30.00 in 10.0 mi South 10.4 mph 20.7 mph N/A   Clear
5:35 PM 73.4 °F 51.8 °F 47% 30.00 in 10.0 mi SSE 13.8 mph 18.4 mph N/A   Clear
5:55 PM 73.4 °F 51.8 °F 47% 30.00 in 10.0 mi SSE 9.2 mph 17.3 mph N/A   Clear
6:15 PM 73.4 °F 51.8 °F 47% 30.01 in 10.0 mi South 10.4 mph 16.1 mph N/A   Clear
6:35 PM 71.6 °F 51.8 °F 50% 30.01 in 10.0 mi South 12.7 mph 16.1 mph N/A   Clear
6:55 PM 71.6 °F 50.0 °F 46% 30.01 in 10.0 mi South 10.4 mph 18.4 mph N/A   Clear
7:15 PM 73.4 °F 51.8 °F 47% 30.01 in 10.0 mi SSE 8.1 mph - N/A   Clear
7:35 PM 73.4 °F 51.8 °F 47% 30.02 in 10.0 mi South 11.5 mph - N/A   Clear
8:15 PM 71.6 °F 50.0 °F 46% 30.03 in 10.0 mi SSE 6.9 mph - N/A   Clear
8:35 PM 69.8 °F 51.8 °F 53% 30.04 in 10.0 mi South 8.1 mph - N/A   Clear
8:55 PM 69.8 °F 51.8 °F 53% 30.05 in 10.0 mi SSE 3.5 mph - N/A   Clear
9:15 PM 68.0 °F 51.8 °F 56% 30.05 in 10.0 mi SSE 3.5 mph - N/A   Clear
9:35 PM 68.0 °F 51.8 °F 56% 30.06 in 10.0 mi Calm Calm - N/A   Clear
9:55 PM 66.2 °F 51.8 °F 60% 30.07 in 10.0 mi Calm Calm - N/A   Clear
10:15 PM 64.4 °F 51.8 °F 64% 30.07 in 10.0 mi Calm Calm - N/A   Clear
10:35 PM 64.4 °F 51.8 °F 64% 30.07 in 10.0 mi Calm Calm - N/A   Clear
11:15 PM 64.4 °F 51.8 °F 64% 30.08 in 10.0 mi SSE 4.6 mph - N/A   Clear
11:35 PM 64.4 °F 51.8 °F 64% 30.08 in 10.0 mi South 3.5 mph - N/A   Clear
11:55 PM 64.4 °F 51.8 °F 64% 30.07 in 10.0 mi SSE 3.5 mph - N/A   Clear